STARLINK-11115, 60305

Orbit data source: Space-Track

STARLINK-11115, 60305 is a payload satellite owned by SpaceX/Seattle (US) in LEO that was launched on Sun, 28 Jul 2024 UTC via an FALCON 9 launch vehicle from the Air Force Western Test Range (AFWTR). Payload-class satellites include a variety of spacecraft equipped with specific instruments for various scientific and technological missions. These include communications satellites like Starlink; space stations such as the ISS; scientific satellites like the Hubble; Earth observation satellites from companies like Planet Labs, Umbra, and HawkEye 360; GPS; miniature CubeSats for education and research; and military/defense satellites.

Not visible in the next 10 days
Identifier
60305, 2024-133E
Orbit
LEO
Country
Flag of USUS
Related business
Manufacturer
SpaceX/Seattle
Mission
Operational Commercial Communications
Bus & Motor
STARLINK V2MD, Unknown motor
Mass
960 kg wet, ~910 kg dry
Launch date (UTC)
2024-07-28 (2 years ago)
Launch vehicle
FALCON 9
Launch site
Air Force Western Test Range (AFWTR)
Object type
Payload
Rocket body
Debris
Shape & HBR
Box + 2 Pan, 18.1 m
Radar Cross Section
36.964 m², Large (>1 m²)

Expand to show TLE details & history
Last TLE update: 1 day ago

TLE from 1 day ago
0 STARLINK-11115
1 60305U 24133E   26170.81156079 -.00000517  00000-0  58442-6 0  9993
2 60305  53.1596   2.7864 0000840 105.7175 254.3936 15.69710040109779
Epoch: 2026-06-19T19:28Z
TLE epoch observation values (Epoch: 2026-06-19T19:28:38.852Z)
Latitude
0.00002°
Longitude
162.58936°
Altitude
360.794 km
Speed
7.694 km/s
True Right ascension
00h 11m 08s
True Declination
0° 00' 00"
Sunlit
Object was in daylight at epoch
Visualization orbit readout
Latitude
Unknown
Longitude
Unknown
Altitude
Unknown
Speed
Unknown
Apparent Right ascension
Unknown
Apparent Declination
Unknown
Sunlit
N/A
Visualization observer readout
Local Sidereal Time
07:16:30
Azimuth
Unknown
Elevation
Unknown
Doppler factor
Unknown
Orbital elements
Apogee altitude
360.553 km
Perigee altitude
359.421 km
Semi-major axis
6,738.124 km
Eccentricity
0.00008
Inclination
53.1596°
RAAN
2.7864°
Arg. of periapsis
105.7175°
True anomaly
254.38433°
Mean anomaly
254.3936°
Eccentric anomaly
254.38896°
Mean motion
3.92405 °/min
Orbital period
91.74 mins
BSTAR
5.8442e-7
Loading maneuver chart data...
Computing Atmospheric mass density...
Loading historical data...
Loading historical data...
Loading historical data...
Loading historical data...
Loading historical data...
Loading historical data...
Loading historical data...

Documentation

Showing up to 5 results
|